TimeEST,TemperatureF,Dew PointF,Humidity,Sea Level PressureIn,VisibilityMPH,Wind Direction,Wind SpeedMPH,Gust SpeedMPH,PrecipitationIn,Events,Conditions,WindDirDegrees,DateUTC
12:54 AM,42.1,28.0,58,30.18,-9999.0,WNW,12.7,23.0,N/A,,Unknown,300,2013-11-09 05:54:00
1:54 AM,42.1,25.0,51,30.19,-9999.0,NW,15.0,25.3,N/A,,Unknown,310,2013-11-09 06:54:00
2:54 AM,42.1,26.1,53,30.21,-9999.0,WNW,13.8,24.2,N/A,,Unknown,300,2013-11-09 07:54:00
3:54 AM,42.1,26.1,53,30.22,-9999.0,WNW,15.0,26.5,N/A,,Unknown,300,2013-11-09 08:54:00
4:54 AM,42.1,27.0,55,30.23,-9999.0,WNW,10.4,20.7,N/A,,Unknown,300,2013-11-09 09:54:00
5:54 AM,42.1,27.0,55,30.24,-9999.0,WNW,13.8,21.9,N/A,,Unknown,300,2013-11-09 10:54:00
6:54 AM,42.1,25.0,51,30.25,-9999.0,WNW,12.7,23.0,N/A,,Unknown,300,2013-11-09 11:54:00
7:54 AM,43.0,24.1,47,30.27,-9999.0,WNW,13.8,21.9,N/A,,Unknown,300,2013-11-09 12:54:00
8:54 AM,44.1,24.1,45,30.27,-9999.0,WNW,16.1,26.5,N/A,,Unknown,300,2013-11-09 13:54:00
9:54 AM,45.0,27.0,49,30.26,-9999.0,West,10.4,17.3,N/A,,Unknown,280,2013-11-09 14:54:00
10:54 AM,46.0,26.1,46,30.25,-9999.0,West,12.7,19.6,N/A,,Unknown,260,2013-11-09 15:54:00
11:54 AM,46.0,24.1,42,30.23,-9999.0,West,8.1,16.1,N/A,,Unknown,280,2013-11-09 16:54:00
12:54 PM,46.0,28.0,50,30.20,-9999.0,West,10.4,18.4,N/A,,Unknown,280,2013-11-09 17:54:00
1:54 PM,46.9,28.9,50,30.18,-9999.0,West,8.1,-,N/A,,Unknown,260,2013-11-09 18:54:00
2:54 PM,46.0,30.9,56,30.17,-9999.0,WSW,6.9,-,N/A,,Unknown,250,2013-11-09 19:54:00
3:54 PM,46.0,28.0,50,30.16,-9999.0,WSW,8.1,-,N/A,,Unknown,250,2013-11-09 20:54:00
4:54 PM,45.0,30.0,56,30.15,-9999.0,SSW,3.5,-,N/A,,Unknown,210,2013-11-09 21:54:00
5:54 PM,45.0,28.9,53,30.16,-9999.0,SW,3.5,-,N/A,,Unknown,220,2013-11-09 22:54:00
6:54 PM,46.0,30.0,54,30.16,-9999.0,WSW,4.6,-,N/A,,Unknown,240,2013-11-09 23:54:00
7:54 PM,46.0,32.0,58,30.14,-9999.0,SW,3.5,-,N/A,,Unknown,230,2013-11-10 00:54:00
8:54 PM,48.9,35.1,59,30.12,-9999.0,SW,5.8,-,N/A,,Unknown,220,2013-11-10 01:54:00
9:54 PM,50.0,37.9,63,30.11,-9999.0,SW,9.2,-,N/A,,Unknown,230,2013-11-10 02:54:00
10:54 PM,50.0,35.1,57,30.09,-9999.0,WSW,8.1,-,N/A,,Unknown,240,2013-11-10 03:54:00
11:54 PM,50.0,37.9,63,30.06,-9999.0,WSW,4.6,-,N/A,,Unknown,240,2013-11-10 04:54:00